sat.trackr.live / text

‹ back to catalog

STARLINK-31100

NORAD 58714 · 2024-002K

PAYLOAD ACTIVE UNKNOWN

§ Identity

Operator
Country
US
Launch date
2024-01-03
Launch site
AFWTR
Launch vehicle
Mass (kg)
RCS (m²)

Purposes: comms

External: N2YO · Heavens-Above · Gunter

§ Orbital elements

Epoch: 2026-05-25T05:18:23.911776Z

Period
94.11 min
Inclination
53.1603°
Eccentricity
0.0000717
Mean motion
15.30191731 rev/d
Perigee alt
474.7 km
Apogee alt
475.7 km
Semi-major
6,853.4 km
B*
3.5765e-5
RAAN
234.3820°
Arg perigee
99.4977°
Mean anomaly
260.6105°
Rev number
13,373

§ Raw data

STARLINK-311001 58714U 24002K   26145.22111009  .00000700  00000+0  35765-4 0  99932 58714  53.1603 234.3820 0000717  99.4977 260.6105 15.30191731133735

JSON: /api/v1/satellites/58714 · /tle

For live sub-satellite position, see the globe view (requires WebGL).

§ Visibility from observer

Set your observer location to see the next 7 days of passes ≥ 10°. The values pass through the URL so the page stays shareable.

No JS? Fill the form by hand. The geolocation button needs JavaScript.